818  
ASUS46 KOTX 180125  
RWROTX  
 
EASTERN WASHINGTON/NORTHERN IDAHO ROUNDUP  
NATIONAL WEATHER SERVICE, SPOKANE WA  
600 PM PDT WED AUG 17 2022  
 
NOTE: "FAIR" INDICATED FEW OR NO CLOUDS BELOW 12,000 FEET WITH NO  
SIGNIFICANT WEATHER AND/OR S TO VISIBILITY
.  
   
..NORTHEAST WASHINGTON AND NORTHERN IDAHO PANHANDLE
 
 
 
CITY SKY/WX TMP DP RH WIND PRES REMARKS
 
SPOKANE INTL SUNNY 96 40 14 NE9 30.02F HX 92  
SPOKANE DOWNTO SUNNY 98 41 14 N6 29.99F HX 93  
COEUR D ALENE SUNNY 95 44 17 N7 30.02F HX 91  
DEER PARK SUNNY 97 42 15 NE5 30.02F HX 93  
SANDPOINT SUNNY 91 45 19 N3 30.01F  
BONNERS FERRY FAIR 90 48 24 CALM 30.02F  
   
..SOUTHEAST WASHINGTON AND SOUTHERN IDAHO PANHANDLE
 
 
 
CITY SKY/WX TMP DP RH WIND PRES REMARKS
 
WALLA WALLA SUNNY 104 40 11 NE9 29.88F HX 98  
PULLMAN/MOSCOW SUNNY 95 35 12 NW5 30.02F HX 90  
LEWISTON SUNNY 104 42 12 CALM 29.91F HX 99  
LOWELL N/A 83 56 39 CALM 29.91S  
GRANGEVILLE FAIR 91 37 15 NE5 30.07S  
   
..COLUMBIA BASIN
 
 
 
CITY SKY/WX TMP DP RH WIND PRES REMARKS
 
EPHRATA SUNNY 101 44 14 W10 29.91F HX 97  
MOSES LAKE SUNNY 102 41 12 W8 29.91F HX 97  
PASCO SUNNY 101 59 24 NW10 29.83F HX 101  
RICHLAND CLEAR 106 43 12 N9 29.83F HX 101  
HERMISTON MOSUNNY 103 45 14 NE3 29.85F HX 99  
PENDLETON SUNNY 102 43 13 N10G18 29.91S HX 97  
   
..EAST SLOPES CASCADES
 
 
 
CITY SKY/WX TMP DP RH WIND PRES REMARKS
 
THE DALLES CLOUDY 103 45 14 NE5 29.82S HX 99  
YAKIMA MOSUNNY 99 51 19 S6 29.91F HX 96  
ELLENSBURG SUNNY 99 44 15 S6 29.96F HX 95  
STAMPEDE PASS SUNNY 85 42 22 MISG 30.13F  
WENATCHEE SUNNY 99 47 17 E5 29.91F HX 95  
WINTHROP MOCLDY 98 41 14 S7 29.96F HX 94  
OMAK SUNNY 102 42 13 SW6 29.93F HX 97  
CHELAN N/A 100 45 15 MISG N/A HX 96  
SUNNYSIDE PTCLDY 94 65 38 CALM 29.87F HX 97  
   
..SOUTHERN BRITISH COLUMBIA
 
 
 
CITY SKY/WX TMP DP RH WIND PRES REMARKS
 
PENTICTON SUNNY 90 57 33 NW7 29.95F  
CASTLEGAR SUNNY 93 48 21 N7 29.96F HX 90  
CRANBROOK MOSUNNY 91 41 17 E5 30.08F  
OSOYOOS N/A 97 52 21 N3 N/A HX 94  
CRESTON N/A 90 59 35 NW5 N/A  
   
..WESTERN MONTANA
 
 
 
CITY SKY/WX TMP DP RH WIND PRES REMARKS
 
KALISPELL CLEAR 90 38 16 E3 30.06F  
LIBBY N/A 93 37 14 W5 30.02F  
MISSOULA SUNNY 97 37 12 N10 30.04F HX 92  
   
..NEIGHBORING CITIES
 
 
 
CITY SKY/WX TMP DP RH WIND PRES REMARKS
 
SEATTLE MOSUNNY 87 56 34 N10 29.91F  
PORTLAND CLOUDY 95 62 33 NW6 29.82S HX 96  
BOISE SUNNY 100 36 11 NW8 29.94F HX 94  
GREAT FALLS SUNNY 87 43 21 NE8 30.17F  
CALGARY MOSUNNY 79 50 36 E9 30.22S  
 
CLICK HERE TO GO TO PREVIOUS BULLETINS.

The Nexlab WA Page
The Nexlab ID Page Main Text Page